Wind_Speed
53 53 54 53 52 50 49 47 46 44 43 43 45 47 50 52 53 53 53 53 52 46 44 44 40 35 34 35 38 38 36 38 38 39 38 31 28 29 30 31 30 30 29 29 29 29 27 26 25 25 25 25 26 26 26 25 22 22 23 22 19 19 16 8 4 8 12 10 8 9 9 10 10 10 10 10 10 9 9 9 9 11 10 9 10 9 8 7
51 52 53 53 52 51 50 49 47 46 45 43 43 44 47 50 52 52 52 53 53 49 45 43 42 38 34 33 36 39 38 37 40 41 36 30 31 32 31 31 31 31 30 30 29 28 28 27 27 26 26 25 26 27 27 26 24 23 24 26 22 19 18 14 9 11 12 11 10 9 10 11 11 11 10 10 10 10 9 10 10 11 11 11 10 9 9 9
50 50 51 52 52 52 51 50 48 47 46 45 44 43 44 47 50 51 51 52 53 51 49 45 43 41 38 35 34 37 40 38 42 42 33 31 33 33 31 31 31 31 31 30 28 28 30 29 28 27 26 26 26 27 28 28 27 26 25 28 27 21 19 18 14 14 14 14 12 11 12 14 13 12 11 11 11 9 8 10 10 11 13 12 11 10 9 10
50 50 49 50 51 51 51 50 49 48 47 47 46 45 44 44 47 50 50 50 51 51 51 48 46 44 40 37 30 32 40 42 45 42 32 32 33 32 32 31 31 32 32 31 29 30 32 31 30 29 27 26 26 27 29 30 28 28 29 28 27 24 21 21 18 16 16 16 15 15 17 17 15 13 12 13 13 10 11 12 11 11 13 13 12 11 10 10
50 50 49 48 49 49 50 50 49 48 48 47 47 46 45 44 44 47 49 49 50 48 49 49 47 46 44 39 28 24 34 42 46 42 35 35 33 32 32 30 30 31 32 31 30 32 34 33 31 30 29 27 27 28 29 30 30 29 30 28 26 25 24 24 23 20 19 18 17 17 18 17 16 15 14 15 14 12 13 14 13 12 12 12 12 11 10 10
50 49 48 48 48 48 49 48 48 48 48 48 47 47 46 45 44 45 47 48 49 47 47 48 45 44 46 45 34 24 28 36 40 39 39 38 34 33 33 30 29 30 32 32 32 32 34 35 33 31 30 28 27 28 27 28 31 31 30 29 27 26 26 27 26 24 23 20 18 17 18 18 17 16 15 15 14 13 14 14 14 14 14 13 11 10 9 10
50 49 48 47 46 46 47 47 47 47 47 47 47 47 47 46 45 44 45 46 49 47 45 45 43 40 43 47 44 33 29 32 35 33 35 39 36 34 33 30 28 28 31 31 31 32 33 34 33 31 30 29 27 26 26 27 29 30 30 29 28 28 29 29 26 24 23 22 21 20 19 19 19 18 18 17 15 14 14 13 14 15 15 15 13 11 10 11
50 49 48 47 46 46 46 46 46 46 46 47 47 47 47 47 46 45 44 44 47 47 45 43 42 39 39 45 46 43 35 30 33 29 27 35 37 35 35 33 28 28 30 28 29 30 33 34 31 31 31 29 27 26 26 26 28 30 29 28 27 29 31 31 27 24 23 23 23 22 21 21 21 22 21 19 17 16 15 14 14 15 17 16 14 13 12 12
49 49 48 47 46 45 45 45 45 46 46 47 47 47 47 47 46 46 44 44 44 46 46 43 42 39 38 38 41 49 41 26 31 32 26 30 36 37 36 34 30 29 30 27 27 29 33 35 31 30 30 27 26 25 25 26 28 27 26 26 26 29 32 32 29 28 27 26 24 23 23 23 23 24 24 21 19 18 17 17 16 16 18 18 16 14 14 13
47 47 47 47 46 45 45 44 45 45 45 46 47 47 47 47 46 46 45 44 43 44 44 43 41 39 39 36 37 50 46 28 28 35 32 28 31 37 37 34 31 29 31 30 28 30 32 35 31 28 25 25 25 25 25 26 26 24 23 25 26 28 32 33 32 32 32 30 28 27 26 27 26 28 28 24 21 19 17 18 19 19 19 18 17 16 15 14
47 46 46 46 45 45 44 44 44 44 44 45 46 46 46 46 46 46 46 45 44 43 42 41 40 38 39 38 39 50 52 37 27 30 35 32 28 33 36 35 33 30 31 31 30 29 32 35 34 30 24 23 25 25 26 26 24 23 23 24 26 29 31 34 34 34 36 34 32 32 32 32 32 34 32 25 21 20 19 18 20 21 21 20 18 17 16 15
46 45 45 44 44 44 43 43 43 43 43 43 44 45 46 46 45 45 46 45 45 43 42 40 38 36 36 39 43 50 52 47 36 26 27 31 28 29 32 34 33 31 29 29 30 29 30 33 36 32 25 23 26 24 25 26 24 23 24 24 25 29 31 32 33 33 35 34 33 32 33 36 35 35 31 24 21 22 21 21 21 22 22 21 19 18 16 15
45 45 45 44 43 43 43 42 42 42 42 42 43 44 45 45 44 44 45 45 45 44 42 40 38 36 35 37 41 43 43 47 48 37 27 27 28 27 30 33 30 29 28 26 26 28 31 32 34 32 25 22 25 23 21 21 24 23 23 25 25 28 31 30 29 31 32 32 32 29 31 36 35 31 29 26 24 24 24 23 22 23 23 22 21 20 18 17
45 44 44 44 43 43 43 42 41 41 41 41 42 43 44 44 44 44 44 43 43 43 42 39 37 36 38 40 40 38 36 38 45 49 41 29 28 29 29 32 31 29 27 23 22 26 30 31 31 29 24 21 24 25 22 18 22 24 22 25 26 28 30 28 27 29 30 29 30 28 32 38 33 28 28 26 25 24 24 24 23 24 24 24 23 22 20 18
46 45 45 45 44 43 43 42 41 40 40 40 41 42 44 44 45 44 44 43 39 40 40 37 36 35 38 45 45 40 37 37 39 47 49 36 28 30 30 30 31 30 27 24 24 25 27 30 33 29 23 23 23 24 25 20 20 25 24 24 28 30 29 27 26 27 28 27 29 29 33 37 31 27 27 25 25 24 23 24 24 24 25 26 27 25 23 21
47 46 46 46 45 44 43 43 42 40 39 39 39 41 42 44 45 44 44 43 38 36 38 37 37 36 38 44 47 43 39 39 38 39 46 43 32 29 31 31 30 29 27 26 26 26 27 29 33 29 23 24 24 22 23 21 19 24 25 23 26 30 28 26 26 25 26 26 29 31 33 36 31 26 24 22 24 26 26 24 23 24 24 26 28 27 25 23
49 47 47 47 45 45 43 43 42 41 40 38 39 40 41 43 45 45 45 43 38 35 37 37 36 36 38 41 44 48 42 36 35 34 40 46 40 34 34 34 34 31 28 28 28 27 28 29 31 30 26 26 26 24 23 22 22 23 24 21 18 21 24 25 25 24 24 26 27 28 32 35 31 27 25 23 23 25 29 28 25 24 23 25 27 29 28 26
49 49 48 47 46 45 43 43 42 41 40 39 39 38 40 42 44 45 44 42 39 36 36 37 35 35 40 43 43 47 44 37 35 34 37 43 45 42 37 33 34 34 32 32 31 30 31 31 31 31 30 29 29 31 28 25 25 23 21 20 16 17 22 25 25 23 24 26 26 26 28 31 28 25 24 25 25 24 28 30 29 28 26 26 26 28 29 28
48 48 48 47 46 44 43 42 40 40 40 39 39 38 40 43 43 44 43 42 43 40 38 40 42 41 43 48 47 44 42 37 36 37 38 41 43 43 40 38 36 36 37 37 36 35 35 34 34 35 37 37 35 36 34 28 25 23 20 20 20 20 22 23 22 21 22 24 26 26 27 28 27 24 22 22 25 27 27 29 31 31 32 31 29 28 29 30
45 46 46 46 45 44 42 41 40 40 40 41 42 42 44 47 46 47 46 46 48 47 44 44 47 47 48 50 49 47 43 38 38 40 40 40 41 42 43 45 42 39 41 42 41 38 36 37 40 41 42 41 37 35 34 30 25 23 22 23 24 23 23 22 20 19 20 21 23 23 24 27 27 26 22 20 23 28 29 30 31 32 32 33 31 29 28 30
43 44 45 44 43 44 42 41 40 40 41 43 44 46 48 49 50 49 49 49 48 48 47 46 44 45 49 51 49 47 44 43 41 39 41 43 44 46 45 44 42 42 44 43 42 40 38 40 43 41 41 40 37 35 35 30 22 21 24 23 24 24 22 20 17 16 17 20 20 20 23 27 27 25 24 23 25 27 27 28 29 29 30 32 33 32 29 28
44 44 44 43 43 43 42 41 40 40 41 42 45 49 47 46 46 44 45 51 52 49 49 48 45 45 48 52 52 45 39 43 45 41 41 44 46 49 48 45 41 41 43 43 42 41 41 44 44 41 39 39 36 34 35 31 23 20 23 22 22 21 19 18 17 14 17 20 20 21 26 28 29 28 28 29 30 28 25 27 27 27 28 29 31 33 32 30
44 45 44 43 43 42 42 41 39 39 41 43 46 48 45 42 44 44 44 49 52 51 50 48 49 50 50 52 55 50 40 38 43 44 42 44 47 49 50 51 47 43 43 44 44 43 43 47 46 41 40 40 37 35 34 33 29 25 25 24 23 21 18 17 16 14 15 19 21 22 27 31 32 31 31 30 31 30 28 28 29 29 29 28 29 31 33 33
44 44 43 44 42 42 42 39 38 39 39 42 45 44 43 43 45 48 47 46 48 53 52 49 49 52 52 51 52 54 51 42 40 43 45 46 47 47 49 53 53 49 48 47 47 46 47 47 44 42 44 42 37 35 35 35 34 31 29 27 24 21 20 17 13 13 15 18 20 21 25 32 35 34 33 29 29 31 31 30 31 30 31 30 29 30 32 34
44 43 43 44 43 43 41 38 38 39 39 42 44 42 43 45 47 48 46 43 44 50 51 50 49 50 52 51 50 52 54 51 44 40 45 48 49 49 48 49 53 53 52 50 49 50 50 46 43 43 46 44 39 38 38 38 37 35 35 33 26 21 20 16 14 14 16 18 20 18 16 19 26 29 28 26 27 28 29 30 31 30 30 32 32 31 30 31
43 43 43 44 44 42 40 40 41 40 41 44 44 43 42 45 47 47 44 38 40 47 49 50 50 50 53 53 52 52 50 53 49 40 42 48 49 51 49 49 52 53 52 52 49 49 50 47 45 44 44 43 42 41 41 40 38 38 39 36 30 26 22 18 16 14 13 15 17 16 12 13 23 29 26 23 25 25 25 26 27 26 26 28 31 31 31 31
44 44 44 44 44 43 43 45 44 43 46 47 45 43 42 46 47 48 43 26 28 45 50 51 53 50 53 56 57 55 48 48 50 42 41 48 49 49 51 52 52 50 51 50 46 45 49 49 45 42 42 43 44 44 43 41 39 40 40 34 33 32 26 20 16 14 13 15 17 19 18 18 28 36 33 31 32 31 31 31 29 28 26 25 26 27 28 29
44 43 43 44 44 44 45 45 45 47 48 47 46 44 44 48 47 49 42 14 11 38 48 51 56 50 50 56 57 56 51 49 50 44 39 44 50 52 53 55 52 49 50 50 48 48 49 50 49 45 43 44 48 46 43 41 39 39 36 32 31 31 29 24 18 16 16 16 19 22 19 15 23 36 38 36 38 36 34 33 31 30 27 25 24 24 25 25
43 43 44 43 42 44 44 44 45 47 46 45 45 46 48 50 50 50 38 13 12 32 43 48 55 53 51 54 53 51 53 53 50 44 40 43 52 56 55 53 52 50 50 51 51 49 47 48 49 48 48 48 47 43 41 39 38 35 30 28 28 28 30 27 20 19 16 13 20 26 22 14 19 35 40 38 39 40 35 31 29 28 27 26 24 24 24 22
42 43 42 42 43 44 45 46 46 44 45 45 45 48 50 52 54 42 20 16 24 29 37 46 54 58 55 53 52 50 52 54 50 43 41 46 52 56 55 51 51 52 51 51 50 47 47 46 44 44 46 47 44 40 39 37 35 33 26 25 27 28 28 25 23 21 13 12 21 27 27 19 14 21 29 33 34 33 30 27 24 23 23 23 21 19 19 19
41 42 41 43 45 46 48 50 49 46 45 47 47 50 52 53 53 31 7 20 34 30 35 44 52 61 60 56 55 53 51 54 55 46 40 45 53 56 55 51 51 50 49 52 50 46 45 40 41 43 42 44 42 39 36 33 35 34 29 29 27 23 22 19 18 16 10 10 14 17 21 21 18 14 12 18 23 24 26 26 24 21 18 18 18 18 16 16
40 41 41 44 46 47 49 50 50 48 46 49 49 52 55 48 40 28 16 22 30 33 41 46 51 62 62 59 57 57 55 52 56 53 43 44 53 60 60 56 54 45 39 47 49 44 44 42 41 41 41 43 41 38 37 35 38 36 33 35 26 13 12 12 8 7 9 8 3 5 10 18 32 34 28 30 34 33 32 29 25 23 21 20 20 20 18 16
40 41 43 45 46 46 47 46 47 48 48 52 51 55 57 36 22 29 33 25 19 31 45 46 52 61 62 61 56 56 59 54 54 54 48 47 51 59 62 60 62 51 38 45 49 41 36 38 42 42 41 43 43 43 44 41 43 41 40 43 31 11 5 7 4 1 7 10 7 7 8 15 32 35 31 32 31 29 30 31 29 27 24 22 20 20 19 17
40 42 42 43 43 45 45 45 47 48 50 54 54 57 51 26 19 36 42 30 19 28 43 45 49 54 58 63 59 56 59 57 53 49 46 48 46 52 61 60 60 56 45 44 50 46 33 27 42 51 46 46 48 48 47 46 49 49 47 48 40 22 10 7 7 6 6 7 11 14 10 12 19 16 10 6 7 10 14 19 22 22 19 17 16 17 17 15
40 41 42 42 42 44 45 46 48 49 50 53 56 58 47 28 29 42 44 33 25 31 40 41 45 47 48 55 56 56 58 59 60 51 43 44 40 40 54 61 59 55 46 38 39 44 35 23 37 53 51 50 51 49 48 45 45 48 46 43 40 33 23 13 10 13 9 3 8 17 17 18 18 16 12 6 3 5 5 5 7 6 5 7 8 11 13 15
42 42 42 44 44 45 46 47 49 50 51 55 56 55 50 39 34 39 43 37 31 35 39 38 42 44 42 45 47 51 53 55 62 60 50 48 43 35 40 54 62 58 51 43 37 39 33 23 32 46 49 50 49 47 49 47 43 44 43 40 38 35 29 16 6 7 7 3 8 17 24 29 25 24 24 22 21 19 18 21 18 15 15 16 16 15 15 18
45 44 43 44 45 45 46 46 47 49 52 56 56 50 49 47 36 32 38 38 33 39 42 39 39 41 41 41 41 48 52 49 52 57 56 50 43 41 39 44 56 60 57 51 43 43 40 28 31 44 50 51 48 46 49 51 48 44 41 43 39 29 25 20 6 2 4 4 8 17 27 29 23 20 17 17 23 23 22 25 22 20 19 19 18 15 15 17
44 42 42 43 43 43 44 45 48 50 52 57 57 46 40 43 37 30 35 35 31 38 44 39 36 39 42 41 41 45 49 46 43 48 53 46 36 38 41 41 50 57 59 53 42 42 41 27 26 41 49 47 47 47 47 49 51 47 43 46 42 25 21 24 14 6 7 5 5 12 22 26 29 29 18 11 12 8 8 11 12 11 11 13 15 15 16 16
43 40 37 36 37 40 41 42 48 54 54 56 55 42 31 33 33 29 31 33 30 33 39 37 36 39 41 42 43 45 48 48 44 44 47 44 41 41 39 40 49 55 59 57 44 40 41 28 22 38 48 46 47 50 49 49 49 45 40 45 46 33 25 32 30 18 11 7 6 6 8 18 34 40 34 28 24 18 16 18 18 18 17 16 14 13 13 13
40 38 36 33 32 35 36 36 44 54 55 55 51 41 32 29 27 25 28 32 31 31 34 34 35 37 38 40 41 44 48 49 48 48 44 41 45 47 39 37 48 55 58 59 47 38 41 35 25 35 44 44 48 51 53 54 50 46 44 45 47 39 27 29 32 25 14 5 4 3 4 14 21 19 19 22 22 23 23 21 21 19 14 11 9 8 9 10
35 33 33 31 30 34 36 35 39 48 50 47 43 37 31 27 27 26 27 28 29 31 34 34 35 36 37 39 40 41 45 47 48 49 47 43 44 46 40 36 45 54 55 57 51 38 36 39 34 35 40 43 49 54 56 58 56 54 54 51 50 44 32 20 15 20 22 13 7 4 7 17 20 13 13 17 18 19 17 17 19 14 8 7 8 8 9 11
31 29 29 30 31 35 37 34 32 34 35 34 32 29 26 26 28 28 25 23 22 24 27 27 30 36 38 39 40 41 42 44 46 47 49 50 51 51 44 33 38 53 54 55 57 46 37 39 37 37 42 44 45 51 54 54 55 54 51 51 49 44 39 27 14 19 27 26 23 15 11 24 31 28 29 29 26 23 17 14 16 11 7 8 8 8 9 11
27 27 28 28 29 34 35 31 27 27 25 22 23 23 22 24 28 29 26 23 19 17 16 15 19 27 35 38 38 40 41 41 44 47 49 52 57 61 54 35 32 47 53 53 56 47 36 35 34 31 37 41 39 45 53 54 53 49 45 46 46 44 46 41 31 28 26 29 31 16 11 25 25 17 23 25 22 21 17 16 16 13 13 12 10 11 11 11
25 26 28 27 27 31 32 28 27 27 23 20 21 22 23 25 27 27 26 24 23 19 13 11 13 15 24 33 35 39 39 34 36 44 46 48 54 61 61 46 33 40 51 52 53 49 36 33 33 23 16 20 22 26 37 44 46 45 45 46 46 47 47 43 39 32 24 33 37 17 15 33 26 16 18 18 17 21 22 22 20 18 16 14 15 15 12 11
27 27 28 28 27 29 29 26 27 28 26 23 22 21 22 25 24 22 20 20 22 23 17 13 12 9 11 19 25 33 37 33 30 36 41 43 46 54 60 54 39 36 47 51 54 56 45 35 38 30 14 11 16 22 34 46 49 48 51 53 51 51 51 49 45 34 26 36 40 29 30 38 28 21 22 19 20 24 25 25 24 20 19 18 19 17 14 14
28 28 30 30 29 28 28 26 27 28 27 25 22 19 19 21 22 19 17 15 16 19 20 18 15 10 6 8 13 19 28 30 26 28 37 39 39 45 53 55 45 37 41 48 50 53 49 40 43 45 36 31 34 40 50 58 57 54 54 57 57 55 54 52 45 39 38 37 33 37 45 43 33 26 21 22 26 27 26 27 24 23 22 21 21 20 19 20
26 29 32 34 31 29 29 28 27 28 28 26 23 20 19 20 21 20 19 17 15 16 19 21 20 17 10 7 9 10 16 21 19 20 32 39 37 37 41 46 45 40 41 47 47 46 45 44 44 47 46 42 37 38 47 53 55 57 58 57 56 51 50 49 46 46 46 30 22 37 48 46 47 41 28 26 30 30 31 32 27 25 24 24 26 25 23 22
25 27 32 33 29 29 33 31 28 29 29 28 24 22 23 23 23 22 21 20 18 17 18 21 23 23 19 13 10 9 12 16 16 14 20 29 32 32 34 37 40 42 42 45 48 45 41 44 49 49 47 43 35 33 41 49 53 58 59 58 58 54 52 53 54 55 50 35 36 51 51 49 57 54 44 44 42 39 41 40 35 33 32 33 33 29 25 23
24 24 29 30 24 26 31 30 27 28 28 28 26 25 25 25 24 24 23 22 23 22 21 22 24 25 26 22 17 13 11 13 15 15 14 18 22 25 29 30 34 40 41 41 48 48 42 43 47 47 47 44 37 32 34 41 48 53 54 57 59 59 59 59 60 61 56 51 56 61 57 59 64 59 56 57 50 46 47 46 44 42 41 40 37 32 27 24
23 25 30 29 21 23 29 27 25 26 25 25 26 26 25 23 23 25 25 25 26 26 26 27 26 24 23 24 23 20 15 11 12 14 15 17 18 19 22 23 25 31 36 39 41 43 45 45 44 45 44 42 40 38 34 34 42 48 51 53 55 55 57 60 61 60 57 56 61 63 60 64 67 61 58 57 52 50 51 50 49 47 43 40 37 33 27 24
21 24 30 27 20 24 30 26 25 25 24 24 24 22 21 20 20 22 24 25 25 25 26 25 23 22 20 20 21 22 21 18 14 12 14 18 20 20 20 19 19 21 29 35 35 37 42 42 41 41 36 34 42 43 38 37 40 45 50 52 52 54 56 58 61 61 61 62 64 64 61 64 67 63 59 58 55 54 53 50 48 46 42 39 38 33 27 26
19 23 28 25 20 26 30 26 25 25 23 22 21 17 17 17 18 20 21 23 24 24 22 19 17 18 19 21 21 18 17 19 17 15 16 16 18 20 21 21 20 19 24 30 32 36 40 38 35 36 32 34 42 43 41 37 30 34 51 57 57 60 61 62 64 64 65 66 64 63 60 57 57 55 53 54 54 54 54 51 48 47 44 40 37 31 27 28
Wind_Direction
215 213 212 212 212 212 212 213 214 215 215 216 217 219 221 222 224 226 226 227 229 222 211 207 206 207 209 211 216 218 221 223 224 226 226 223 221 218 217 216 214 216 222 225 226 224 222 220 217 217 220 220 220 222 226 224 215 210 207 208 214 213 216 225 250 242 239 234 223 229 237 247 253 256 260 264 267 268 272 274 272 274 274 270 268 267 264 255
214 212 211 211 212 212 213 213 213 215 216 216 217 218 220 222 223 225 226 227 231 228 220 213 209 209 208 209 214 216 219 221 223 226 224 219 219 218 219 218 216 216 221 226 227 225 224 222 220 218 219 221 221 222 223 222 217 213 214 214 212 212 217 224 242 250 248 246 239 242 253 261 262 257 259 261 262 267 268 264 267 271 270 269 270 271 270 265
212 211 210 210 210 211 212 213 214 215 216 217 217 218 219 220 222 224 226 228 231 231 227 221 216 214 210 209 213 216 219 222 224 224 219 217 219 218 220 220 218 217 220 225 226 225 225 223 220 218 219 221 222 223 222 221 219 217 219 220 217 214 215 219 235 253 257 255 249 248 258 267 275 269 256 254 261 265 261 259 261 265 269 270 268 266 266 269
212 211 209 208 209 210 211 212 213 215 216 217 218 218 218 219 221 223 225 227 230 232 231 228 223 219 214 210 212 218 222 226 229 224 218 221 221 219 221 221 219 218 218 222 225 225 225 223 219 216 216 219 221 222 223 222 222 220 223 226 224 221 218 217 225 243 253 254 249 247 256 267 277 277 261 254 261 263 262 267 264 258 265 272 274 272 266 267
213 211 210 209 208 208 209 210 212 214 216 217 218 219 219 220 221 222 224 226 229 232 232 232 230 225 220 215 210 218 222 228 234 227 219 225 223 221 224 222 219 217 216 218 220 223 224 222 219 215 212 215 218 220 222 223 223 224 227 232 231 225 222 220 220 235 249 249 247 246 253 262 268 273 269 260 259 261 266 277 279 272 271 273 274 276 274 270
213 211 209 209 208 208 208 209 211 213 215 217 218 220 220 220 221 222 224 226 229 231 232 234 234 231 227 222 216 219 222 225 235 229 219 223 224 222 224 224 220 217 217 216 216 219 222 219 216 214 211 213 216 219 221 222 224 226 229 232 231 228 228 226 220 229 243 247 246 245 248 255 261 267 269 265 259 258 266 275 281 284 283 279 274 276 276 273
212 211 210 209 208 208 208 208 210 212 213 215 218 219 220 221 221 223 224 225 227 230 232 233 235 234 232 230 223 221 225 224 232 233 221 219 222 221 222 223 221 217 217 217 215 218 221 216 210 211 211 212 215 218 221 223 227 228 230 232 230 228 231 234 226 225 235 242 245 246 249 252 258 264 266 266 263 258 263 270 274 279 282 281 280 281 278 273
211 210 210 209 208 208 208 208 208 209 211 213 216 219 220 221 222 223 224 225 226 229 231 232 234 234 234 236 229 225 225 220 227 233 224 218 218 219 219 221 220 218 218 217 217 217 221 217 208 210 212 211 214 217 219 222 227 228 230 231 229 227 230 236 232 225 228 236 243 247 249 253 257 262 262 263 265 260 258 262 266 272 277 280 282 282 277 272
209 209 209 210 209 208 208 209 208 208 209 211 213 216 219 221 222 223 224 225 226 228 231 233 234 233 235 239 236 231 222 211 224 231 228 220 215 215 217 218 217 217 217 215 216 217 220 219 209 207 213 212 215 220 220 222 226 226 227 227 226 226 229 234 233 228 229 231 238 245 247 250 254 257 258 258 262 262 258 260 263 266 271 277 280 280 276 271
210 210 210 210 210 210 209 209 210 209 208 209 211 213 217 220 221 223 224 226 226 228 231 233 235 233 234 237 239 235 222 207 221 227 225 222 217 215 213 215 216 218 219 214 215 219 222 223 212 203 210 214 217 223 224 227 229 226 227 227 226 227 229 234 233 233 238 238 239 243 245 246 250 254 255 256 261 265 264 262 261 263 267 273 276 276 275 271
211 210 211 211 210 211 211 211 211 211 210 209 210 211 214 217 220 222 224 226 227 228 230 232 235 234 233 235 240 238 227 215 217 222 220 217 218 219 213 212 213 216 221 217 216 219 223 227 221 205 199 210 218 223 227 228 230 230 231 231 230 231 232 235 236 238 243 245 245 246 248 248 249 252 254 257 261 266 267 264 261 261 264 268 272 274 273 269
212 211 211 212 212 212 212 213 213 212 211 209 209 209 211 214 217 220 223 225 227 228 229 231 232 232 234 237 241 243 236 227 223 221 215 208 211 217 213 210 212 216 221 222 221 222 223 229 229 212 193 204 213 218 228 228 229 231 231 232 234 235 236 237 239 242 243 246 248 250 253 251 249 252 256 257 256 258 259 260 260 260 261 265 269 271 271 269
214 213 213 213 213 213 213 212 212 212 211 209 208 208 208 210 213 217 221 224 227 227 229 230 230 229 229 233 237 241 241 236 233 231 221 202 199 204 206 207 207 212 219 224 227 229 228 230 233 216 194 204 212 211 223 225 226 229 230 230 232 234 238 239 240 242 242 245 248 252 256 254 250 253 257 257 253 254 255 255 255 255 256 260 264 267 268 267
214 214 214 214 214 213 212 211 210 210 209 207 207 207 207 207 210 214 217 222 226 228 227 228 229 226 224 227 232 236 238 237 235 234 229 211 197 195 197 203 204 207 212 217 223 231 229 229 231 217 200 212 217 213 217 220 223 226 227 227 226 229 235 239 240 242 242 244 246 249 256 257 253 252 253 254 254 253 253 253 253 252 251 252 256 261 263 264
213 213 214 214 213 213 212 211 210 208 207 206 204 205 206 206 208 210 214 219 223 227 227 224 225 225 224 227 230 233 235 234 234 235 233 224 211 204 198 198 202 204 205 209 215 222 223 226 227 215 204 215 220 216 215 217 221 219 218 219 221 226 235 240 241 243 243 244 245 244 253 259 259 257 254 252 249 246 247 248 249 251 250 250 251 254 259 261
214 213 213 214 213 212 212 212 212 210 209 206 204 204 204 205 207 209 212 215 218 225 228 224 223 224 227 229 229 229 229 229 233 236 233 228 222 217 208 202 200 199 199 203 210 214 217 225 226 215 205 210 214 212 208 208 212 212 214 216 220 225 231 239 241 244 245 245 245 242 249 258 261 263 261 256 247 242 242 243 246 249 249 250 250 252 255 258
215 213 213 213 213 212 212 213 213 212 211 209 206 204 204 204 206 209 212 214 213 220 227 225 223 224 228 232 230 229 226 224 228 228 228 229 227 224 218 207 201 198 196 200 205 208 210 217 221 214 208 209 208 204 200 203 204 204 208 212 221 226 229 236 240 243 244 243 246 245 249 256 260 262 264 264 256 245 242 242 244 248 249 250 251 251 252 255
215 213 213 213 213 213 212 213 213 213 212 210 208 206 204 203 205 210 213 213 211 214 220 219 216 217 224 229 229 230 228 224 226 224 224 228 230 231 226 214 207 201 196 199 204 205 204 209 215 215 214 214 209 205 205 208 207 203 204 207 213 222 227 234 237 240 241 243 246 247 251 259 264 263 259 260 259 251 247 246 245 247 250 251 251 250 250 253
213 212 213 213 213 213 212 213 213 212 211 208 206 204 202 202 206 211 212 212 210 210 212 211 211 214 223 228 230 232 230 225 226 226 222 222 226 229 226 224 221 207 198 200 202 203 203 203 206 211 216 216 212 210 212 217 218 217 220 225 226 225 230 236 238 239 241 245 248 248 255 262 264 262 256 252 253 251 251 250 247 247 248 251 252 250 249 250
212 211 211 212 212 212 212 212 211 210 209 206 203 200 199 200 204 208 209 211 213 213 216 217 217 221 227 230 231 231 229 223 223 225 223 220 222 224 221 223 221 205 199 204 203 203 204 201 204 213 218 217 215 214 216 221 224 226 231 238 238 235 238 242 241 239 239 245 250 255 264 266 262 261 257 251 247 246 248 251 250 247 246 248 252 252 250 248
213 213 212 212 212 211 211 211 210 209 208 206 203 201 201 200 203 207 206 209 213 214 219 221 220 223 226 229 231 230 227 222 220 221 222 220 220 221 219 216 212 200 198 205 205 202 203 205 212 222 223 219 218 217 217 219 217 223 231 235 237 237 238 239 238 240 242 246 254 263 268 266 261 260 260 257 252 247 247 250 252 252 249 249 251 253 252 251
214 214 214 215 214 211 210 211 211 210 208 206 205 205 206 205 208 212 208 209 211 212 217 220 218 220 224 228 229 228 226 223 221 218 217 215 212 215 218 214 208 203 200 201 201 197 200 211 219 226 225 220 219 217 217 218 213 215 223 226 227 229 229 229 229 236 243 248 254 261 266 267 264 260 258 256 254 253 250 249 253 256 255 251 251 252 253 252
215 214 214 215 216 213 211 212 211 211 209 207 207 209 211 209 209 212 210 211 213 212 214 217 216 217 221 225 227 226 224 223 221 218 214 211 208 211 216 215 213 211 205 201 199 196 203 217 222 221 221 218 216 216 215 217 216 212 214 217 218 221 225 227 230 235 241 248 253 259 265 267 265 263 259 257 257 258 258 256 255 254 255 253 250 252 253 251
214 213 214 215 216 214 212 213 213 212 212 211 212 214 214 208 205 209 210 213 217 215 214 216 216 216 218 221 224 224 224 223 222 218 213 211 211 210 213 218 219 213 210 207 205 208 217 224 221 216 218 217 214 214 211 211 214 213 213 215 216 221 226 229 237 240 241 250 256 264 273 271 267 267 265 262 261 260 259 259 257 254 253 253 251 250 251 250
213 212 213 213 215 214 213 213 214 213 213 215 215 214 211 206 203 207 211 214 219 218 216 217 217 216 217 218 221 222 222 223 223 219 214 211 213 213 212 216 214 209 209 208 207 215 224 226 221 216 215 215 215 215 213 212 213 216 219 218 215 221 228 228 234 241 246 255 261 266 276 274 269 269 269 267 262 259 259 259 260 258 253 252 251 250 251 252
213 213 213 213 214 213 211 213 214 213 214 216 217 213 209 206 204 204 208 216 223 219 214 215 217 217 216 217 218 219 221 223 223 222 217 212 214 217 213 207 206 207 208 205 206 214 220 223 224 218 213 213 214 216 218 216 212 217 223 219 214 219 224 225 229 236 244 254 262 259 256 272 273 266 264 265 263 261 262 261 263 263 259 254 253 252 253 254
213 213 214 214 214 213 212 213 212 211 213 215 215 213 209 206 204 203 206 218 227 218 212 212 214 215 216 218 218 216 217 221 221 221 217 210 208 212 212 206 203 206 206 201 203 212 217 219 220 218 214 212 211 213 218 217 212 219 225 219 214 219 222 223 227 233 241 250 258 259 260 274 275 266 262 265 266 266 265 265 266 266 265 260 257 256 256 257
212 213 214 215 215 215 214 214 211 210 214 214 212 212 207 203 202 200 204 216 210 210 212 211 211 213 214 219 220 216 215 218 217 217 217 212 207 207 211 211 209 210 207 201 204 212 216 215 215 214 212 211 214 216 217 215 215 221 226 220 216 221 223 221 223 235 245 255 259 258 259 267 270 270 272 274 272 270 268 268 269 268 267 263 257 255 257 261
212 212 213 215 215 215 215 216 215 214 215 213 210 208 201 200 200 198 205 214 177 199 211 210 208 209 211 215 217 215 214 216 215 214 216 215 209 208 210 213 215 214 211 210 211 213 215 219 221 216 210 213 217 217 215 214 216 219 223 223 220 222 224 219 225 243 252 256 254 252 251 256 273 274 274 274 273 274 274 274 272 267 265 264 261 257 257 261
211 211 213 213 213 213 212 214 216 214 212 209 207 203 197 197 198 197 208 210 193 198 205 205 206 206 207 210 212 212 212 213 214 214 215 214 211 210 212 213 214 212 210 212 216 216 217 222 223 217 216 220 219 215 215 217 217 215 214 215 214 218 222 222 231 243 253 254 249 250 250 252 274 281 275 272 272 275 278 278 276 269 262 261 260 257 257 257
211 211 212 212 213 212 210 211 211 208 208 206 203 197 195 196 197 200 216 197 199 203 196 198 205 206 206 208 208 207 208 211 213 212 210 209 210 210 209 208 207 207 208 208 210 215 217 216 213 215 221 221 214 210 212 213 212 210 206 202 200 202 210 220 229 227 233 251 248 249 249 246 246 252 266 272 271 274 278 279 279 277 269 261 260 260 260 255
210 210 210 210 212 212 211 212 208 203 203 202 198 193 192 195 200 208 210 191 196 201 193 191 199 204 206 208 208 206 204 206 209 212 210 205 207 207 206 205 202 200 201 199 200 207 213 214 212 213 215 213 208 200 199 205 206 201 195 189 183 177 194 208 211 207 226 242 227 194 209 233 247 252 258 266 271 275 278 280 279 274 266 259 259 264 263 253
206 206 207 208 210 210 210 211 206 202 197 195 194 192 192 196 203 206 204 196 191 194 192 190 194 202 204 204 207 205 202 201 203 208 210 203 205 208 208 209 206 202 198 192 191 195 205 213 212 206 205 208 207 196 191 196 198 196 193 188 184 173 175 203 194 197 242 235 213 187 192 240 257 265 270 270 272 272 268 267 266 264 261 258 256 257 262 258
202 203 204 204 206 207 206 204 202 200 194 190 189 188 192 200 201 201 203 197 178 183 190 189 189 195 200 202 205 203 200 200 198 201 203 198 201 207 207 208 207 204 198 190 189 190 190 198 203 204 204 204 206 206 205 202 199 201 202 198 196 190 179 191 192 199 219 221 213 201 202 243 251 259 270 269 277 275 264 257 258 261 261 258 253 248 254 262
198 198 198 197 199 203 202 200 200 198 192 188 187 187 191 198 195 201 206 195 172 174 185 190 189 188 194 201 205 204 203 201 199 200 206 204 202 206 206 207 207 204 198 190 188 191 194 196 200 206 210 206 203 208 212 208 200 201 204 203 203 201 200 198 197 207 201 161 199 200 213 238 240 239 233 208 253 295 293 262 251 261 250 234 243 248 257 264
190 191 191 193 195 196 197 198 196 195 192 188 187 189 193 198 197 200 205 197 183 180 180 184 189 185 188 196 201 203 204 205 203 204 213 217 215 215 210 207 207 205 200 195 190 190 197 206 202 203 209 211 209 207 208 208 204 200 200 203 205 207 209 205 196 205 194 226 231 214 231 246 251 258 254 245 252 260 263 265 264 265 264 260 260 262 261 260
182 184 187 192 194 194 194 196 194 192 192 188 189 193 193 198 203 201 199 195 188 187 183 179 185 186 186 191 196 200 200 204 207 207 213 219 222 226 222 211 207 205 204 202 197 196 197 200 201 200 204 210 213 211 208 210 212 206 201 204 204 206 213 211 207 140 161 243 243 220 235 245 247 256 259 253 258 257 252 258 261 260 263 261 256 253 251 252
177 177 181 186 190 190 189 191 190 189 190 188 191 198 193 192 200 199 195 194 187 186 182 176 181 189 190 189 194 198 196 200 205 207 211 216 221 227 228 219 209 205 206 205 202 202 198 190 190 197 202 205 205 205 202 205 211 213 214 212 205 200 201 199 201 205 197 227 256 227 235 242 240 241 241 238 244 231 219 247 256 250 255 261 259 257 257 254
164 161 166 174 179 179 178 179 181 182 186 188 190 198 193 183 189 192 190 191 189 184 180 176 179 189 194 194 194 195 195 198 201 202 207 212 217 225 232 225 213 207 206 205 205 205 201 193 184 192 199 200 198 199 198 199 203 209 216 213 207 206 201 197 204 210 200 211 251 243 232 243 248 251 252 251 249 247 255 267 268 262 261 262 259 257 253 250
154 150 152 159 167 170 168 171 177 178 183 188 191 197 197 180 176 184 188 192 193 187 184 184 186 192 198 200 198 196 196 199 201 202 205 208 211 220 231 229 217 211 207 205 206 206 202 201 193 188 193 195 195 198 201 201 200 200 204 202 202 205 202 203 211 212 204 206 236 249 256 249 254 259 258 258 258 255 254 256 258 259 253 239 236 243 243 243
157 151 146 152 161 163 161 166 175 177 180 186 188 193 197 184 172 176 183 191 195 191 189 190 193 198 201 201 201 199 196 198 201 203 205 206 206 211 223 228 219 213 209 205 206 206 201 203 198 187 187 191 197 204 208 208 206 204 204 201 200 199 194 196 211 213 216 226 226 231 270 256 249 246 251 260 260 256 257 250 242 240 230 226 240 249 246 244
163 158 148 151 160 162 162 166 174 178 181 184 183 185 190 187 183 184 187 189 190 192 191 190 192 196 199 201 202 200 197 197 200 203 206 208 209 211 218 226 220 215 211 208 208 207 203 203 199 190 190 193 198 205 208 209 209 208 206 205 203 197 194 195 200 207 214 226 236 242 268 264 258 253 253 257 256 258 262 240 222 225 251 262 259 257 261 258
168 165 154 152 160 165 166 168 176 182 181 180 183 186 189 190 192 198 202 199 195 195 195 193 191 188 190 197 200 199 197 197 199 205 209 211 213 214 218 224 223 215 212 210 208 204 203 203 193 183 190 194 195 201 205 206 207 204 202 204 202 200 202 205 210 213 210 218 226 228 252 257 256 249 246 250 249 248 243 220 218 247 265 266 271 279 284 274
173 171 163 157 161 171 175 174 177 181 178 175 183 191 196 198 200 206 212 211 208 209 209 210 210 192 184 192 198 199 199 198 200 204 209 212 213 214 217 223 226 216 213 213 209 204 205 202 187 171 177 193 192 195 199 201 203 203 203 204 203 203 206 208 213 217 218 222 219 209 240 246 240 229 234 237 229 226 229 230 234 247 253 257 273 284 286 276
177 176 173 169 169 176 183 187 186 182 177 178 183 189 197 202 205 210 215 216 216 218 220 218 220 217 193 189 193 195 197 198 201 204 207 211 212 213 216 221 227 224 217 217 214 209 208 202 192 184 174 181 191 192 193 197 201 204 207 208 208 208 207 208 211 211 220 228 219 212 232 241 239 235 232 227 216 213 223 236 241 245 249 254 264 276 281 283
179 178 177 179 182 183 186 191 192 185 180 183 185 188 197 202 206 209 209 208 211 215 217 220 220 218 205 182 180 185 192 195 199 204 208 210 210 212 215 219 226 229 223 219 217 213 211 208 204 201 198 199 199 199 198 198 198 201 206 210 212 212 210 209 209 210 219 227 221 221 232 240 242 237 225 216 210 206 222 244 251 250 248 247 254 267 280 286
177 182 182 181 183 188 191 194 195 189 188 190 190 191 197 200 203 209 210 208 207 207 211 219 224 221 217 198 180 174 182 190 196 202 208 211 210 209 212 217 223 228 225 220 217 214 211 211 212 210 210 211 210 206 203 200 200 204 207 209 210 210 208 208 211 217 221 224 228 232 234 240 244 240 228 221 217 218 238 252 252 250 251 253 258 268 280 284
173 181 184 182 181 187 193 196 196 194 195 198 199 202 207 207 208 212 215 215 214 213 214 219 224 225 225 218 199 181 173 184 197 203 206 210 212 210 210 214 220 224 224 221 219 217 214 214 215 214 214 214 216 219 211 205 206 210 211 210 210 210 207 208 215 222 222 221 232 238 236 240 247 246 241 241 236 235 248 254 249 251 257 261 265 272 278 278
172 175 177 179 182 187 191 194 196 196 198 199 203 209 213 214 215 217 219 220 220 221 222 226 229 229 229 227 221 210 186 178 195 212 218 217 214 212 210 212 218 222 222 222 222 221 220 221 218 215 216 215 214 221 221 212 209 210 211 211 211 210 211 214 220 224 223 223 233 239 238 242 250 251 248 249 245 240 247 253 252 254 259 263 269 272 271 268
175 173 173 176 180 182 185 190 194 197 201 203 206 212 216 219 220 221 221 221 222 223 224 228 232 234 235 234 231 227 219 204 200 209 220 227 227 224 218 214 219 225 225 223 224 222 220 224 223 217 217 218 216 219 226 221 213 210 211 212 211 210 212 215 220 224 222 224 233 238 239 243 249 250 249 251 249 244 247 252 253 255 260 264 267 267 264 262
181 177 175 176 177 178 181 187 191 194 199 203 205 210 214 218 222 226 226 225 226 227 228 233 239 240 243 244 240 236 235 237 235 224 224 229 231 234 232 227 228 235 234 231 230 224 217 218 221 216 213 217 216 217 222 223 219 213 210 210 210 210 212 216 221 224 223 225 230 233 238 245 249 250 251 253 253 251 251 252 253 256 259 262 264 264 262 260
186 183 179 178 175 178 183 187 189 190 192 194 194 195 201 206 212 217 222 225 228 230 233 239 244 244 248 249 247 246 247 250 253 251 246 236 223 219 222 226 229 236 239 237 237 233 222 214 213 209 208 215 216 214 214 215 212 209 211 214 215 215 217 220 224 227 227 227 228 230 237 246 250 252 253 253 253 253 253 254 256 258 259 261 262 262 260 261
Height
3024 3028 3033 3037 3040 3044 3048 3052 3056 3060 3064 3068 3072 3076 3080 3083 3087 3090 3093 3095 3098 3103 3106 3108 3112 3114 3117 3120 3123 3126 3127 3128 3130 3131 3134 3141 3146 3147 3148 3150 3152 3154 3157 3159 3161 3164 3167 3169 3171 3173 3175 3176 3177 3178 3180 3181 3183 3185 3186 3187 3188 3190 3191 3191 3192 3192 3192 3193 3195 3195 3195 3196 3196 3197 3196 3196 3196 3196 3196 3196 3196 3196 3196 3196 3196 3197 3197 3197
3020 3024 3029 3033 3037 3041 3045 3049 3053 3057 3061 3065 3069 3072 3076 3080 3084 3087 3090 3093 3094 3099 3104 3106 3109 3112 3115 3117 3120 3123 3124 3125 3126 3127 3134 3141 3142 3143 3145 3148 3150 3153 3154 3156 3160 3163 3165 3167 3169 3171 3173 3174 3175 3177 3178 3180 3182 3183 3184 3185 3187 3188 3190 3191 3191 3192 3192 3193 3194 3195 3195 3195 3195 3196 3196 3196 3196 3196 3196 3196 3196 3195 3195 3195 3196 3196 3196 3196
3016 3020 3025 3029 3033 3037 3041 3046 3050 3054 3058 3062 3065 3069 3073 3077 3080 3083 3087 3090 3092 3096 3100 3104 3107 3109 3112 3115 3117 3120 3122 3123 3121 3124 3134 3138 3138 3141 3144 3146 3149 3151 3152 3155 3158 3161 3163 3165 3167 3169 3171 3172 3173 3175 3177 3179 3180 3181 3182 3183 3185 3187 3188 3189 3190 3191 3191 3192 3194 3194 3194 3194 3195 3195 3196 3195 3195 3195 3195 3195 3195 3194 3194 3195 3195 3195 3195 3195
3011 3016 3021 3025 3030 3034 3038 3042 3046 3051 3055 3058 3062 3066 3070 3074 3077 3081 3084 3087 3089 3092 3097 3102 3105 3107 3110 3112 3116 3118 3120 3120 3117 3124 3135 3135 3137 3141 3142 3145 3147 3149 3151 3153 3156 3158 3160 3162 3164 3166 3168 3170 3172 3173 3174 3176 3178 3179 3180 3181 3183 3186 3187 3188 3189 3190 3190 3191 3192 3193 3193 3193 3194 3195 3195 3194 3194 3194 3194 3194 3194 3194 3194 3194 3194 3194 3194 3194
3007 3012 3017 3021 3026 3030 3035 3039 3043 3048 3052 3055 3059 3063 3067 3071 3074 3078 3081 3084 3087 3089 3093 3098 3101 3105 3107 3110 3114 3116 3118 3117 3114 3124 3133 3132 3135 3139 3140 3143 3145 3147 3149 3151 3153 3155 3157 3159 3161 3163 3165 3167 3169 3170 3172 3174 3176 3177 3178 3180 3182 3184 3184 3185 3187 3188 3189 3189 3190 3191 3192 3193 3193 3193 3193 3194 3194 3193 3192 3192 3193 3193 3193 3194 3194 3194 3194 3194
3003 3008 3013 3018 3022 3027 3031 3036 3041 3045 3049 3053 3056 3060 3064 3068 3072 3075 3078 3081 3084 3087 3090 3094 3098 3102 3105 3107 3111 3112 3114 3114 3112 3121 3128 3128 3133 3136 3139 3141 3143 3146 3147 3149 3150 3151 3155 3157 3158 3160 3162 3165 3167 3168 3170 3172 3174 3175 3177 3178 3180 3181 3182 3183 3185 3186 3187 3188 3189 3190 3191 3191 3192 3192 3192 3192 3193 3193 3192 3192 3191 3192 3192 3193 3193 3194 3194 3193
2999 3004 3009 3014 3019 3023 3028 3033 3037 3042 3046 3050 3054 3057 3061 3065 3069 3072 3075 3079 3081 3084 3087 3091 3095 3098 3102 3104 3107 3108 3109 3112 3112 3117 3123 3126 3130 3134 3137 3139 3141 3144 3144 3146 3147 3149 3153 3154 3155 3158 3161 3163 3164 3166 3169 3171 3172 3173 3175 3177 3179 3180 3180 3181 3183 3185 3186 3187 3187 3188 3189 3189 3190 3190 3190 3191 3192 3192 3192 3192 3191 3191 3191 3191 3192 3193 3193 3193
2995 3000 3005 3010 3015 3020 3024 3029 3034 3038 3043 3047 3051 3054 3058 3062 3066 3069 3073 3076 3079 3082 3084 3088 3092 3095 3099 3100 3103 3105 3103 3109 3113 3115 3121 3125 3127 3131 3134 3137 3140 3142 3143 3145 3147 3149 3151 3152 3153 3156 3159 3161 3163 3165 3167 3169 3170 3171 3172 3175 3177 3178 3178 3179 3181 3183 3184 3184 3185 3186 3187 3188 3188 3188 3188 3189 3190 3191 3191 3191 3191 3190 3190 3190 3191 3192 3192 3192
2991 2996 3001 3006 3011 3016 3021 3025 3030 3035 3039 3044 3048 3052 3055 3059 3063 3067 3070 3073 3076 3079 3082 3085 3088 3092 3096 3097 3101 3102 3100 3108 3113 3114 3119 3123 3125 3128 3131 3134 3138 3140 3142 3144 3146 3147 3148 3150 3152 3154 3157 3160 3162 3163 3165 3166 3166 3168 3171 3173 3175 3176 3176 3177 3179 3181 3181 3182 3183 3183 3185 3186 3186 3186 3186 3187 3189 3189 3190 3190 3190 3190 3189 3189 3190 3191 3191 3191
2987 2992 2997 3002 3007 3012 3017 3022 3026 3031 3036 3040 3044 3049 3052 3056 3060 3064 3067 3071 3073 3077 3079 3082 3085 3089 3093 3094 3096 3096 3099 3108 3111 3112 3117 3120 3123 3125 3128 3132 3136 3139 3140 3142 3144 3145 3147 3148 3149 3152 3156 3159 3160 3161 3163 3163 3165 3168 3170 3171 3173 3174 3174 3175 3176 3178 3179 3180 3181 3181 3182 3183 3184 3183 3182 3185 3187 3188 3189 3189 3188 3188 3188 3188 3188 3189 3190 3190
2983 2988 2993 2998 3003 3008 3013 3018 3023 3028 3032 3037 3041 3045 3049 3053 3057 3061 3064 3067 3071 3074 3077 3080 3083 3086 3090 3092 3091 3092 3099 3107 3109 3111 3114 3117 3121 3123 3126 3130 3134 3137 3139 3141 3143 3144 3146 3146 3148 3150 3154 3157 3158 3160 3161 3161 3164 3166 3168 3170 3171 3172 3172 3173 3174 3176 3177 3178 3179 3179 3179 3180 3180 3179 3179 3184 3186 3186 3187 3187 3187 3186 3186 3186 3187 3187 3188 3189
2979 2984 2989 2994 2999 3004 3009 3014 3019 3024 3029 3034 3038 3042 3046 3050 3054 3058 3061 3065 3068 3071 3074 3078 3080 3084 3088 3088 3088 3089 3097 3104 3107 3110 3112 3115 3119 3122 3126 3130 3133 3136 3138 3141 3142 3144 3146 3146 3148 3148 3151 3154 3157 3159 3159 3160 3163 3165 3166 3168 3168 3169 3170 3170 3173 3174 3175 3176 3177 3177 3176 3174 3176 3176 3178 3183 3184 3184 3184 3184 3185 3185 3184 3184 3185 3186 3186 3187
2975 2981 2985 2990 2995 3000 3005 3010 3015 3020 3025 3030 3035 3039 3043 3047 3051 3055 3058 3062 3065 3068 3072 3075 3078 3082 3084 3083 3084 3087 3093 3099 3103 3107 3111 3113 3116 3120 3124 3128 3131 3135 3138 3140 3142 3144 3145 3146 3148 3148 3150 3153 3156 3157 3157 3159 3161 3162 3164 3165 3166 3166 3166 3168 3171 3172 3173 3174 3175 3176 3172 3169 3173 3175 3177 3180 3181 3181 3181 3181 3182 3182 3183 3182 3183 3184 3184 3185
2972 2977 2982 2986 2991 2997 3002 3007 3011 3016 3022 3027 3031 3036 3040 3044 3048 3052 3056 3059 3062 3065 3069 3072 3074 3077 3079 3080 3082 3085 3090 3095 3098 3102 3108 3111 3113 3116 3120 3124 3129 3132 3135 3139 3141 3142 3143 3145 3146 3147 3149 3151 3153 3155 3156 3157 3159 3160 3162 3163 3163 3163 3163 3167 3169 3169 3171 3172 3174 3175 3169 3165 3170 3174 3175 3177 3178 3179 3178 3178 3179 3180 3180 3180 3181 3181 3182 3183
2968 2973 2978 2983 2988 2993 2998 3003 3008 3013 3018 3023 3028 3033 3037 3042 3045 3049 3053 3056 3060 3062 3065 3068 3070 3073 3075 3077 3080 3083 3087 3090 3093 3099 3105 3110 3112 3114 3118 3122 3125 3129 3133 3136 3137 3139 3141 3142 3143 3146 3148 3150 3152 3153 3154 3155 3156 3158 3159 3159 3160 3160 3162 3165 3166 3167 3168 3170 3172 3173 3167 3162 3167 3170 3172 3174 3175 3176 3176 3176 3177 3177 3178 3178 3179 3179 3180 3181
2965 2970 2975 2979 2984 2989 2994 3000 3005 3010 3015 3020 3025 3029 3034 3038 3042 3046 3050 3053 3058 3059 3061 3064 3066 3069 3071 3073 3077 3079 3082 3086 3091 3096 3102 3107 3111 3113 3117 3120 3123 3127 3130 3132 3134 3136 3139 3140 3141 3144 3147 3149 3150 3150 3152 3153 3153 3154 3155 3156 3157 3158 3161 3162 3163 3165 3166 3167 3168 3168 3165 3162 3165 3167 3169 3171 3172 3173 3173 3174 3174 3175 3176 3176 3176 3177 3178 3178
2961 2967 2971 2976 2981 2986 2991 2996 3001 3007 3012 3017 3021 3026 3031 3035 3039 3043 3046 3050 3054 3056 3057 3060 3064 3068 3068 3069 3072 3074 3078 3085 3090 3093 3098 3103 3107 3111 3114 3117 3120 3124 3126 3129 3130 3133 3135 3137 3138 3141 3144 3147 3148 3149 3150 3149 3149 3151 3152 3155 3156 3157 3160 3160 3160 3162 3164 3164 3164 3164 3162 3160 3163 3165 3167 3168 3168 3169 3170 3171 3172 3172 3173 3173 3174 3174 3175 3176
2957 2963 2968 2973 2978 2983 2988 2993 2998 3003 3008 3013 3018 3023 3028 3033 3036 3039 3041 3046 3051 3052 3053 3056 3061 3063 3062 3063 3067 3070 3077 3085 3089 3092 3096 3100 3104 3107 3112 3115 3117 3119 3122 3124 3126 3128 3131 3133 3136 3139 3141 3143 3144 3145 3144 3144 3146 3149 3151 3153 3155 3156 3157 3157 3158 3160 3160 3161 3161 3161 3160 3159 3161 3163 3165 3165 3165 3166 3167 3168 3169 3170 3170 3171 3171 3172 3173 3174
2953 2958 2964 2970 2974 2979 2985 2990 2995 3000 3005 3010 3014 3019 3024 3028 3031 3033 3037 3041 3043 3044 3045 3049 3052 3055 3057 3062 3065 3069 3077 3084 3087 3090 3093 3097 3100 3104 3109 3111 3112 3115 3117 3118 3121 3123 3126 3129 3132 3133 3134 3136 3138 3141 3142 3144 3147 3150 3151 3153 3154 3154 3154 3155 3156 3158 3159 3159 3159 3159 3158 3158 3158 3160 3161 3162 3162 3162 3163 3164 3165 3166 3167 3167 3168 3169 3170 3171
2950 2955 2961 2966 2971 2976 2981 2986 2992 2996 3001 3004 3008 3013 3015 3019 3023 3026 3031 3035 3037 3040 3043 3046 3050 3054 3058 3062 3064 3068 3074 3079 3082 3086 3090 3094 3097 3100 3104 3106 3108 3111 3112 3113 3116 3120 3123 3125 3125 3126 3128 3132 3136 3140 3143 3146 3148 3150 3152 3152 3153 3153 3153 3154 3155 3156 3157 3156 3156 3157 3157 3156 3155 3156 3158 3160 3160 3159 3159 3160 3161 3163 3164 3164 3165 3166 3167 3168
2947 2952 2957 2963 2968 2973 2978 2983 2988 2992 2997 3000 3003 3005 3007 3012 3016 3020 3027 3031 3034 3039 3042 3045 3051 3054 3057 3059 3060 3064 3069 3072 3076 3082 3087 3091 3093 3095 3098 3102 3104 3106 3109 3112 3114 3117 3121 3120 3120 3123 3128 3132 3136 3139 3142 3145 3147 3148 3150 3150 3151 3152 3152 3153 3154 3154 3155 3154 3155 3155 3154 3153 3153 3154 3155 3156 3156 3156 3156 3156 3157 3159 3161 3162 3162 3163 3164 3166
2943 2948 2953 2959 2965 2970 2975 2979 2984 2989 2993 2996 2998 3000 3005 3012 3016 3021 3027 3027 3030 3035 3038 3042 3047 3051 3054 3057 3058 3062 3065 3068 3073 3078 3083 3086 3088 3089 3093 3097 3100 3103 3107 3111 3112 3114 3116 3114 3117 3123 3127 3131 3134 3137 3140 3142 3145 3147 3148 3149 3149 3151 3152 3152 3152 3152 3153 3152 3153 3153 3151 3150 3150 3150 3151 3152 3152 3152 3154 3154 3154 3155 3157 3158 3159 3159 3161 3163
2939 2945 2950 2955 2961 2967 2971 2976 2981 2985 2987 2990 2993 2998 3006 3013 3018 3023 3025 3026 3028 3031 3033 3037 3041 3046 3050 3051 3054 3059 3062 3065 3069 3074 3079 3081 3083 3085 3088 3091 3096 3101 3104 3106 3108 3110 3108 3107 3113 3121 3124 3127 3131 3134 3137 3140 3142 3144 3145 3146 3147 3150 3151 3151 3150 3151 3152 3151 3151 3151 3148 3146 3146 3146 3146 3148 3149 3149 3151 3151 3152 3152 3153 3154 3155 3156 3157 3158
2936 2942 2946 2952 2958 2963 2968 2973 2977 2979 2983 2988 2991 2999 3007 3011 3015 3019 3022 3025 3026 3027 3030 3034 3038 3042 3044 3046 3050 3055 3058 3062 3065 3070 3075 3076 3079 3083 3085 3088 3092 3096 3098 3101 3105 3105 3103 3105 3112 3118 3120 3123 3127 3131 3134 3136 3138 3141 3143 3144 3145 3149 3150 3150 3150 3150 3150 3149 3148 3149 3146 3141 3142 3142 3142 3145 3146 3145 3147 3148 3148 3149 3149 3150 3151 3152 3153 3154
2933 2938 2943 2949 2954 2959 2966 2969 2970 2975 2981 2985 2990 2998 3004 3008 3013 3017 3021 3024 3022 3024 3029 3031 3035 3037 3040 3044 3047 3050 3055 3058 3062 3067 3071 3072 3075 3079 3083 3086 3088 3090 3093 3098 3103 3102 3102 3106 3111 3114 3115 3119 3124 3126 3129 3131 3134 3137 3138 3140 3144 3148 3149 3149 3149 3149 3149 3147 3146 3149 3145 3136 3137 3139 3139 3141 3141 3141 3143 3143 3143 3145 3146 3146 3146 3147 3149 3150
2930 2935 2940 2945 2951 2957 2961 2962 2967 2974 2977 2981 2988 2996 3000 3005 3012 3016 3020 3022 3017 3017 3022 3026 3030 3032 3036 3040 3042 3049 3054 3054 3059 3065 3067 3070 3074 3076 3079 3082 3084 3086 3089 3095 3099 3099 3100 3104 3108 3110 3112 3117 3120 3121 3124 3128 3131 3132 3132 3138 3143 3146 3148 3147 3147 3147 3146 3145 3145 3146 3144 3136 3132 3134 3136 3138 3138 3138 3139 3139 3140 3141 3142 3142 3142 3143 3145 3146
2927 2932 2936 2942 2947 2951 2954 2958 2965 2969 2971 2977 2986 2993 2998 3003 3011 3015 3020 3019 3009 3008 3016 3020 3024 3028 3034 3035 3038 3045 3048 3048 3057 3062 3063 3068 3072 3074 3075 3076 3080 3084 3087 3092 3094 3092 3094 3099 3103 3107 3111 3113 3114 3115 3119 3124 3127 3127 3130 3137 3141 3143 3146 3146 3145 3145 3144 3144 3143 3142 3143 3137 3127 3127 3133 3135 3134 3135 3135 3136 3137 3138 3139 3139 3139 3140 3141 3142
2923 2928 2933 2938 2943 2947 2952 2956 2961 2963 2968 2977 2984 2989 2995 3001 3008 3012 3015 3010 2999 3002 3011 3014 3020 3029 3031 3031 3034 3040 3042 3047 3053 3056 3062 3067 3068 3070 3070 3070 3075 3080 3083 3086 3085 3085 3089 3092 3095 3101 3105 3107 3107 3111 3116 3122 3125 3126 3131 3137 3140 3143 3145 3144 3144 3143 3142 3143 3140 3138 3142 3137 3122 3121 3129 3129 3129 3130 3131 3133 3134 3134 3135 3136 3136 3137 3137 3138
2920 2925 2929 2935 2940 2945 2950 2953 2956 2962 2969 2976 2981 2986 2992 2998 3005 3009 3007 3000 2993 2996 3004 3010 3017 3023 3024 3026 3031 3036 3040 3045 3047 3052 3060 3063 3062 3064 3065 3069 3075 3078 3079 3080 3081 3083 3086 3088 3092 3096 3099 3100 3104 3111 3116 3120 3123 3127 3132 3136 3140 3142 3142 3143 3142 3141 3142 3140 3135 3135 3140 3136 3119 3116 3124 3125 3123 3126 3127 3130 3130 3131 3132 3132 3133 3133 3133 3134
2917 2922 2926 2932 2936 2940 2944 2948 2953 2961 2967 2973 2978 2984 2990 2995 3000 3002 2995 2988 2989 2995 2999 3004 3009 3013 3016 3022 3027 3031 3037 3040 3044 3050 3055 3057 3060 3061 3063 3069 3074 3075 3077 3080 3082 3084 3085 3089 3092 3095 3098 3101 3106 3111 3115 3119 3123 3127 3132 3134 3138 3140 3140 3141 3139 3140 3142 3134 3129 3132 3136 3137 3124 3112 3116 3120 3120 3123 3124 3126 3127 3127 3128 3129 3129 3130 3130 3130
2914 2919 2923 2928 2931 2935 2939 2942 2948 2956 2963 2969 2976 2982 2988 2993 2995 2991 2984 2983 2990 2994 2994 2997 3002 3007 3012 3016 3019 3025 3032 3037 3042 3046 3049 3053 3057 3057 3059 3064 3067 3071 3074 3076 3080 3083 3084 3086 3089 3093 3098 3101 3105 3110 3114 3119 3122 3125 3128 3130 3134 3137 3138 3140 3138 3139 3138 3127 3124 3128 3132 3137 3124 3108 3111 3117 3118 3121 3121 3122 3124 3124 3125 3126 3126 3126 3126 3127
2911 2916 2920 2924 2927 2931 2935 2938 2945 2952 2958 2965 2972 2977 2984 2987 2985 2980 2980 2985 2986 2985 2988 2992 2995 3002 3009 3014 3016 3019 3025 3031 3036 3041 3045 3049 3050 3050 3052 3054 3058 3064 3066 3068 3075 3080 3081 3082 3085 3090 3095 3097 3101 3106 3112 3116 3118 3120 3123 3125 3129 3133 3135 3134 3132 3132 3129 3124 3124 3126 3130 3130 3114 3104 3112 3115 3115 3118 3118 3119 3120 3120 3121 3122 3122 3122 3123 3124
2909 2912 2916 2920 2924 2928 2932 2938 2945 2949 2954 2961 2967 2974 2979 2978 2973 2974 2981 2983 2978 2978 2987 2990 2991 2997 3004 3008 3012 3015 3021 3026 3031 3036 3040 3043 3045 3046 3048 3049 3052 3055 3058 3063 3068 3073 3078 3080 3082 3086 3090 3094 3097 3100 3103 3107 3111 3113 3113 3115 3118 3122 3125 3126 3126 3126 3124 3123 3124 3127 3130 3123 3107 3105 3110 3111 3112 3114 3113 3114 3114 3115 3117 3117 3119 3119 3119 3120
2906 2909 2913 2917 2922 2925 2930 2936 2941 2946 2951 2957 2963 2970 2973 2970 2968 2974 2979 2978 2976 2979 2986 2989 2990 2995 2998 3001 3006 3010 3017 3023 3028 3032 3034 3035 3038 3040 3042 3046 3049 3052 3055 3059 3060 3062 3068 3069 3070 3075 3080 3085 3088 3090 3094 3097 3102 3104 3105 3107 3108 3110 3114 3117 3119 3120 3119 3121 3123 3127 3126 3114 3105 3106 3107 3107 3109 3109 3109 3110 3110 3111 3112 3113 3115 3116 3117 3117
2903 2907 2911 2916 2919 2923 2928 2932 2937 2943 2949 2955 2962 2964 2964 2963 2967 2971 2972 2974 2976 2977 2983 2989 2990 2993 2997 3000 3004 3007 3011 3017 3024 3028 3028 3028 3030 3032 3036 3039 3044 3049 3052 3055 3056 3059 3062 3061 3063 3070 3074 3077 3081 3085 3092 3096 3099 3101 3105 3106 3105 3106 3109 3111 3113 3113 3116 3119 3119 3120 3114 3103 3102 3105 3106 3108 3108 3108 3109 3109 3109 3110 3110 3111 3113 3113 3115 3114
2900 2904 2909 2913 2916 2921 2925 2929 2934 2941 2945 2952 2958 2957 2958 2962 2963 2965 2969 2973 2974 2974 2980 2987 2988 2990 2995 2998 3002 3006 3011 3015 3018 3022 3023 3025 3027 3029 3032 3035 3038 3043 3046 3049 3052 3055 3060 3062 3064 3069 3073 3075 3079 3083 3089 3091 3093 3097 3100 3102 3103 3107 3108 3110 3112 3113 3116 3117 3113 3111 3105 3100 3102 3102 3102 3107 3107 3107 3109 3107 3108 3110 3109 3110 3111 3111 3112 3111
2897 2902 2907 2912 2915 2919 2923 2927 2933 2939 2943 2949 2953 2953 2956 2960 2960 2963 2968 2970 2971 2972 2975 2980 2983 2987 2991 2995 2998 3001 3008 3013 3015 3017 3019 3022 3024 3025 3029 3033 3036 3039 3042 3047 3049 3049 3054 3059 3061 3064 3067 3071 3078 3083 3085 3087 3089 3091 3094 3097 3103 3108 3109 3112 3114 3114 3117 3115 3108 3104 3100 3100 3102 3099 3098 3102 3102 3103 3105 3104 3106 3107 3107 3107 3108 3109 3109 3108
2897 2902 2907 2911 2914 2918 2922 2926 2931 2936 2942 2947 2949 2950 2952 2955 2957 2961 2965 2968 2970 2971 2972 2974 2979 2984 2987 2990 2993 2997 3004 3007 3010 3014 3017 3020 3020 3020 3025 3031 3033 3037 3041 3046 3048 3049 3052 3056 3060 3062 3064 3068 3075 3080 3081 3083 3085 3086 3089 3094 3098 3101 3103 3107 3110 3109 3111 3111 3103 3098 3097 3096 3095 3093 3095 3100 3100 3100 3102 3103 3104 3104 3105 3105 3105 3106 3106 3106
2896 2901 2906 2910 2914 2917 2920 2924 2927 2932 2938 2942 2945 2947 2949 2952 2955 2959 2963 2966 2969 2970 2971 2972 2976 2980 2984 2986 2989 2993 2998 3001 3004 3009 3013 3015 3017 3019 3023 3027 3030 3034 3038 3042 3045 3047 3049 3053 3056 3058 3061 3066 3070 3071 3072 3074 3079 3084 3089 3092 3093 3094 3096 3098 3099 3100 3102 3104 3100 3096 3094 3089 3085 3087 3092 3097 3099 3100 3100 3101 3102 3102 3102 3103 3103 3103 3104 3104
2896 2900 2904 2909 2913 2916 2919 2922 2925 2928 2934 2938 2941 2944 2947 2950 2953 2957 2962 2965 2966 2968 2971 2972 2974 2977 2981 2984 2987 2989 2993 2997 3000 3003 3006 3009 3013 3017 3021 3025 3028 3031 3035 3040 3041 3044 3047 3048 3051 3054 3058 3060 3060 3060 3063 3066 3070 3076 3080 3083 3085 3089 3092 3093 3095 3095 3097 3099 3097 3095 3090 3082 3081 3085 3088 3092 3096 3098 3098 3098 3099 3099 3099 3101 3101 3101 3102 3102
2897 2900 2903 2908 2912 2915 2918 2922 2924 2927 2931 2935 2939 2942 2945 2949 2952 2956 2960 2963 2963 2965 2968 2971 2973 2975 2977 2980 2983 2985 2989 2993 2995 2998 3001 3003 3006 3011 3018 3022 3025 3028 3033 3035 3036 3039 3042 3044 3047 3050 3050 3051 3052 3055 3059 3062 3064 3067 3069 3071 3075 3081 3086 3090 3093 3093 3094 3094 3094 3094 3086 3076 3080 3084 3085 3089 3093 3093 3094 3095 3095 3096 3097 3098 3099 3099 3099 3100
2898 2901 2903 2907 2912 2916 2919 2921 2924 2927 2931 2934 2938 2941 2945 2948 2951 2955 2959 2961 2962 2963 2966 2969 2971 2972 2974 2976 2979 2982 2985 2988 2991 2993 2995 2998 3001 3007 3014 3019 3022 3025 3028 3029 3031 3035 3039 3040 3042 3044 3045 3048 3051 3054 3058 3061 3064 3067 3068 3070 3074 3078 3081 3085 3087 3088 3091 3091 3091 3093 3084 3071 3074 3081 3082 3086 3089 3090 3092 3092 3092 3094 3095 3096 3096 3097 3097 3097
2898 2901 2904 2908 2912 2916 2919 2921 2924 2928 2932 2935 2937 2940 2943 2946 2950 2954 2957 2960 2961 2963 2965 2967 2969 2970 2971 2973 2976 2979 2981 2984 2987 2989 2992 2996 2999 3004 3010 3016 3020 3023 3025 3026 3028 3033 3035 3036 3037 3040 3044 3047 3048 3050 3054 3058 3061 3063 3065 3068 3072 3074 3075 3079 3082 3084 3087 3086 3086 3091 3082 3068 3069 3076 3078 3082 3086 3088 3089 3089 3090 3092 3092 3093 3094 3094 3095 3095
2897 2901 2905 2909 2913 2916 2919 2921 2923 2927 2931 2934 2937 2939 2942 2946 2949 2952 2955 2958 2960 2963 2964 2965 2968 2969 2969 2971 2973 2976 2980 2983 2985 2987 2991 2994 2997 3001 3006 3012 3016 3019 3020 3021 3025 3028 3030 3030 3032 3037 3042 3044 3045 3047 3049 3053 3056 3058 3061 3065 3068 3070 3074 3078 3081 3083 3081 3077 3079 3083 3075 3064 3067 3073 3075 3079 3083 3085 3086 3087 3088 3090 3090 3091 3091 3092 3093 3093
2898 2902 2907 2910 2913 2916 2919 2921 2923 2927 2931 2934 2936 2939 2942 2945 2948 2951 2954 2957 2959 2961 2963 2965 2967 2968 2969 2970 2972 2975 2978 2980 2983 2986 2988 2992 2995 2998 3002 3008 3012 3015 3017 3020 3023 3025 3024 3024 3024 3025 3028 3030 3031 3030 3031 3038 3046 3050 3054 3057 3060 3063 3066 3068 3072 3075 3072 3069 3072 3073 3065 3061 3066 3070 3072 3076 3079 3081 3083 3084 3085 3088 3089 3089 3089 3089 3090 3090
2898 2901 2905 2910 2913 2916 2919 2921 2924 2928 2931 2934 2937 2940 2942 2944 2947 2950 2953 2956 2958 2960 2962 2964 2966 2967 2968 2969 2971 2974 2976 2979 2982 2984 2986 2990 2993 2994 2998 3004 3009 3012 3016 3018 3020 3021 3020 3019 3019 3017 3016 3017 3017 3018 3020 3026 3033 3039 3043 3047 3051 3054 3058 3062 3065 3065 3062 3063 3066 3065 3062 3062 3064 3067 3070 3073 3075 3077 3080 3082 3082 3084 3086 3087 3087 3087 3088 3088
2899 2901 2903 2906 2911 2915 2918 2920 2924 2928 2931 2934 2937 2939 2942 2944 2947 2949 2952 2954 2956 2958 2960 2962 2963 2966 2968 2969 2970 2972 2974 2977 2980 2982 2985 2988 2991 2993 2996 3001 3005 3010 3013 3015 3016 3017 3015 3014 3015 3016 3017 3019 3020 3021 3023 3026 3030 3033 3037 3041 3046 3051 3057 3060 3059 3057 3060 3064 3063 3061 3062 3060 3059 3064 3069 3071 3072 3074 3077 3079 3079 3080 3082 3083 3083 3085 3086 3086
2899 2901 2903 2906 2909 2912 2915 2918 2922 2926 2930 2933 2936 2939 2941 2943 2945 2948 2950 2952 2954 2956 2958 2959 2961 2964 2967 2969 2970 2972 2973 2975 2978 2981 2984 2986 2989 2992 2994 2998 3002 3006 3009 3011 3012 3012 3010 3009 3011 3013 3015 3019 3022 3023 3025 3027 3028 3031 3033 3037 3042 3046 3050 3052 3052 3053 3058 3060 3056 3055 3059 3056 3052 3058 3063 3064 3067 3069 3072 3075 3076 3076 3078 3078 3079 3082 3084 3084
2901 2903 2906 2908 2910 2912 2915 2919 2922 2925 2928 2931 2934 2936 2938 2941 2944 2946 2948 2950 2952 2954 2956 2957 2959 2962 2964 2967 2969 2971 2972 2973 2975 2978 2981 2984 2987 2989 2991 2995 2998 3001 3005 3007 3008 3008 3007 3006 3008 3011 3013 3016 3019 3021 3023 3025 3027 3029 3031 3033 3036 3039 3041 3043 3045 3048 3052 3054 3051 3051 3053 3048 3044 3049 3055 3058 3062 3064 3067 3070 3071 3071 3073 3075 3077 3079 3081 3081
2903 2904 2906 2909 2911 2914 2917 2920 2923 2925 2928 2931 2933 2935 2937 2939 2942 2944 2946 2948 2950 2952 2954 2955 2957 2960 2962 2965 2967 2969 2971 2972 2974 2976 2979 2981 2984 2986 2989 2991 2994 2997 3001 3003 3003 3004 3004 3003 3005 3009 3010 3011 3014 3018 3020 3022 3023 3025 3027 3030 3034 3037 3039 3040 3042 3045 3049 3050 3047 3046 3046 3040 3038 3045 3052 3055 3058 3060 3062 3064 3065 3067 3070 3072 3074 3075 3077 3077
2905 2906 2907 2910 2912 2914 2917 2920 2922 2925 2927 2930 2932 2934 2937 2939 2941 2943 2945 2947 2949 2951 2954 2955 2957 2960 2961 2963 2965 2968 2971 2973 2974 2976 2978 2979 2982 2984 2987 2989 2991 2994 2997 2999 3000 2999 2999 3000 3002 3005 3007 3006 3009 3013 3014 3018 3021 3021 3022 3026 3030 3033 3034 3034 3034 3036 3039 3039 3039 3041 3040 3034 3034 3042 3048 3050 3052 3054 3055 3058 3061 3063 3066 3069 3069 3071 3073 3073
2906 2908 2910 2911 2913 2915 2918 2920 2922 2925 2927 2929 2932 2934 2936 2939 2941 2943 2945 2947 2949 2951 2953 2955 2957 2959 2960 2962 2964 2968 2971 2972 2975 2977 2977 2979 2980 2982 2984 2986 2989 2991 2994 2997 2996 2995 2996 2996 2997 3000 3001 3001 3003 3007 3010 3015 3017 3012 3011 3015 3018 3020 3022 3024 3025 3027 3029 3031 3033 3034 3031 3028 3032 3040 3043 3044 3046 3047 3049 3053 3056 3058 3061 3064 3065 3067 3069 3068